GW2980 Weather Reports


Display with metric or nautical units.
time (UTC)temp
F
wind
direction
speed
MPH
gust
MPH
rain 1hr
in
rain 24hr
in
rain mn
in
humidity
%
barometer
mb
20260510111236 62 0.0 0.0 0.00 0.00 0.00 59 947.0
20260510110936 61 0.0 0.0 0.00 0.00 0.00 61 947.0
20260510110636 60 0.0 0.0 0.00 0.00 0.00 61 947.0
20260510110336 60 0.0 0.0 0.00 0.00 0.00 61 947.0
20260510110036 61 0.0 0.0 0.00 0.00 0.00 62 946.0
20260510105736 61 0.0 0.0 0.00 0.00 0.00 62 946.0
20260510105136 62 0.0 0.0 0.00 0.00 0.00 60 946.0
20260510104836 62 0.0 0.0 0.00 0.00 0.00 60 946.0
20260510104536 62 0.0 0.0 0.00 0.00 0.00 60 946.0
20260510104235 61 0.0 0.0 0.00 0.00 0.00 61 946.9
20260510103936 60 0.0 0.0 0.00 0.00 0.00 63 947.0
20260510103635 60 0.0 0.0 0.00 0.00 0.00 63 947.0
20260510103335 58 0.0 0.0 0.00 0.00 0.00 65 947.0
20260510103036 58 0.0 0.0 0.00 0.00 0.00 65 947.0
20260510102736 58 0.0 0.0 0.00 0.00 0.00 65 947.0
20260510102435 58 0.0 0.0 0.00 0.00 0.00 65 947.0
20260510102135 58 0.0 0.0 0.00 0.00 0.00 65 947.0
20260510101835 58 0.0 0.0 0.00 0.00 0.00 65 947.0
20260510101535 58 0.0 0.0 0.00 0.00 0.00 65 947.0
20260510101235 59 0.0 0.0 0.00 0.00 0.00 66 947.0
20260510100936 58 0.0 0.0 0.00 0.00 0.00 68 947.0
20260510100335 55 0.0 0.0 0.00 0.00 0.00 73 948.0
20260510100036 54 0.0 0.0 0.00 0.00 0.00 77 948.3
20260510095735 54 0.0 0.0 0.00 0.00 0.00 77 948.3
20260510095436 54 0.0 0.0 0.00 0.00 0.00 77 948.3
20260510095135 54 0.0 0.0 0.00 0.00 0.00 77 948.3
20260510094835 54 0.0 0.0 0.00 0.00 0.00 77 948.0
20260510094536 54 0.0 0.0 0.00 0.00 0.00 77 948.0
20260510094235 54 0.0 0.0 0.00 0.00 0.00 77 948.0
20260510093936 54 0.0 0.0 0.00 0.00 0.00 77 948.0
20260510093636 54 0.0 0.0 0.00 0.00 0.00 78 947.0
20260510093336 54 0.0 0.0 0.00 0.00 0.00 78 947.0
20260510093036 54 0.0 0.0 0.00 0.00 0.00 78 947.0
20260510092736 54 0.0 0.0 0.00 0.00 0.00 78 947.0
20260510092136 55 0.0 0.0 0.00 0.00 0.00 79 947.0
20260510091536 55 0.0 0.0 0.00 0.00 0.00 79 947.0
20260510091236 56 0.0 0.0 0.00 0.00 0.00 77 947.0
20260510090936 57 0.0 0.0 0.00 0.00 0.00 75 947.0
20260510090636 57 0.0 0.0 0.00 0.00 0.00 73 947.0
20260510090336 58 0.0 0.0 0.00 0.00 0.00 71 946.0
20260510085736 58 0.0 0.0 0.00 0.00 0.00 71 946.7
20260510085436 58 0.0 0.0 0.00 0.00 0.00 71 946.7
20260510085136 58 0.0 0.0 0.00 0.00 0.00 70 946.0
20260510084836 58 0.0 0.0 0.00 0.00 0.00 70 946.0
20260510084535 59 0.0 0.0 0.00 0.00 0.00 68 946.0
20260510084235 59 0.0 0.0 0.00 0.00 0.00 68 946.0
20260510083936 59 0.0 0.0 0.00 0.00 0.00 68 946.0
20260510083635 59 0.0 0.0 0.00 0.00 0.00 68 946.0
20260510083336 59 0.0 0.0 0.00 0.00 0.00 66 946.0
20260510083035 59 0.0 0.0 0.00 0.00 0.00 66 946.0
20260510082735 60 0.0 0.0 0.00 0.00 0.00 65 946.0
20260510082436 60 0.0 0.0 0.00 0.00 0.00 65 946.0
20260510082136 60 0.0 0.0 0.00 0.00 0.00 65 946.0
20260510081835 61 0.0 0.0 0.00 0.00 0.00 63 946.0
20260510081536 61 0.0 0.0 0.00 0.00 0.00 63 946.0
20260510080935 62 0.0 0.0 0.00 0.00 0.00 61 946.0
20260510080336 64 0.0 0.0 0.00 0.00 0.00 59 946.0
20260510075436 68 0.0 0.0 0.00 0.00 0.00 53 945.7
20260510074836 69 0.0 0.0 0.00 0.00 0.00 56 945.0
20260510074236 64 0.0 0.0 0.00 0.00 0.00 60 945.0
20260510073935 60 0.0 0.0 0.00 0.00 0.00 64 945.0
20260510073636 59 0.0 0.0 0.00 0.00 0.00 64 946.0
20260510073335 59 0.0 0.0 0.00 0.00 0.00 64 946.0
20260510072436 59 0.0 0.0 0.00 0.00 0.00 64 946.0
20260510072135 59 0.0 0.0 0.00 0.00 0.00 64 946.0
20260510071836 59 0.0 0.0 0.00 0.00 0.00 64 946.0
20260510071536 58 0.0 0.0 0.00 0.00 0.00 64 946.0
20260510071236 58 0.0 0.0 0.00 0.00 0.00 64 946.0
20260510070935 59 0.0 0.0 0.00 0.00 0.00 65 946.0
20260510070636 59 0.0 0.0 0.00 0.00 0.00 65 946.0
20260510070335 59 0.0 0.0 0.00 0.00 0.00 65 946.0
20260510070036 59 0.0 0.0 0.00 0.00 0.00 65 946.0
20260510065735 59 0.0 0.0 0.00 0.00 0.00 65 946.0
20260510065436 59 0.0 0.0 0.00 0.00 0.00 65 946.1
20260510065135 58 0.0 0.0 0.00 0.00 0.00 68 946.0
20260510064836 58 0.0 0.0 0.00 0.00 0.00 68 946.0
20260510064236 56 0.0 0.0 0.00 0.00 0.00 71 946.0
20260510063936 56 0.0 0.0 0.00 0.00 0.00 71 946.0
20260510063635 55 0.0 0.0 0.00 0.00 0.00 73 946.0
20260510063336 54 0.0 0.0 0.00 0.00 0.00 74 946.0
20260510063036 54 0.0 0.0 0.00 0.00 0.00 74 946.0
20260510062735 54 0.0 0.0 0.00 0.00 0.00 74 946.0
20260510062136 54 0.0 0.0 0.00 0.00 0.00 74 946.0
20260510061836 54 0.0 0.0 0.00 0.00 0.00 74 946.0
20260510061535 54 0.0 0.0 0.00 0.00 0.00 74 946.0
20260510061236 54 0.0 0.0 0.00 0.00 0.00 74 946.0
20260510060935 54 0.0 0.0 0.00 0.00 0.00 74 946.0
20260510060635 54 0.0 0.0 0.00 0.00 0.00 75 946.5
20260510055735 54 0.0 0.0 0.00 0.00 0.00 75 946.5
20260510055436 53 0.0 0.0 0.00 0.00 0.00 77 946.5
20260510055136 53 0.0 0.0 0.00 0.00 0.00 77 946.5
20260510054836 53 0.0 0.0 0.00 0.00 0.00 77 946.5
20260510054535 53 0.0 0.0 0.00 0.00 0.00 77 946.5
20260510053936 53 0.0 0.0 0.00 0.00 0.00 77 946.5
20260510053635 53 0.0 0.0 0.00 0.00 0.00 77 946.5
20260510053336 53 0.0 0.0 0.00 0.00 0.00 77 946.5
20260510053036 53 0.0 0.0 0.00 0.00 0.00 77 946.5
20260510052735 53 0.0 0.0 0.00 0.00 0.00 77 946.5
20260510052436 53 0.0 0.0 0.00 0.00 0.00 77 946.5
20260510052135 53 0.0 0.0 0.00 0.00 0.00 77 946.5
20260510051836 53 0.0 0.0 0.00 0.00 0.00 77 946.5
20260510051536 53 0.0 0.0 0.00 0.00 0.00 77 946.5
20260510050935 53 0.0 0.0 0.00 0.00 0.00 77 946.5
20260510050036 53 0.0 0.0 0.00 0.00 0.00 77 946.5
20260510045736 53 0.0 0.0 0.00 0.00 0.00 77 946.5
20260510045435 53 0.0 0.0 0.00 0.00 0.00 77 946.0
20260510045135 53 0.0 0.0 0.00 0.00 0.00 77 946.0
20260510044835 53 0.0 0.0 0.00 0.00 0.00 77 946.0
20260510044536 53 0.0 0.0 0.00 0.00 0.00 77 946.0
20260510044236 53 0.0 0.0 0.00 0.00 0.00 77 946.0
20260510043936 53 0.0 0.0 0.00 0.00 0.00 77 946.0
20260510043635 53 0.0 0.0 0.00 0.00 0.00 77 946.0
20260510043335 53 0.0 0.0 0.00 0.00 0.00 77 946.0
20260510043036 53 0.0 0.0 0.00 0.00 0.00 77 946.0
20260510042736 53 0.0 0.0 0.00 0.00 0.00 77 946.0
20260510042136 53 0.0 0.0 0.00 0.00 0.00 77 946.6
20260510041836 53 0.0 0.0 0.00 0.00 0.00 77 946.6
20260510041536 53 0.0 0.0 0.00 0.00 0.00 77 946.6
20260510041236 53 0.0 0.0 0.00 0.00 0.00 77 946.6
20260510040936 53 0.0 0.0 0.00 0.00 0.00 77 946.6
20260510040636 53 0.0 0.0 0.00 0.00 0.00 77 946.6
20260510040336 53 0.0 0.0 0.00 0.00 0.00 77 946.6
20260510040036 53 0.0 0.0 0.00 0.00 0.00 76 946.0
20260510035436 53 0.0 0.0 0.00 0.00 0.00 76 946.0
20260510035136 53 0.0 0.0 0.00 0.00 0.00 76 946.0
20260510034536 53 0.0 0.0 0.00 0.00 0.00 77 946.9
20260510034236 53 0.0 0.0 0.00 0.00 0.00 77 946.9
20260510033636 53 0.0 0.0 0.00 0.00 0.00 77 946.9
20260510033335 53 0.0 0.0 0.00 0.00 0.00 77 946.9
20260510033035 53 0.0 0.0 0.00 0.00 0.00 77 946.9
20260510032435 53 0.0 0.0 0.00 0.00 0.00 77 946.9
20260510032136 53 0.0 0.0 0.00 0.00 0.00 77 946.9
20260510031836 53 0.0 0.0 0.00 0.00 0.00 77 946.9
20260510031535 53 0.0 0.0 0.00 0.00 0.00 77 946.9
20260510030936 53 0.0 0.0 0.00 0.00 0.00 77 946.9
20260510030635 53 0.0 0.0 0.00 0.00 0.00 77 947.0
20260510030336 53 0.0 0.0 0.00 0.00 0.00 77 947.0
20260510030036 53 0.0 0.0 0.00 0.00 0.00 77 947.0
20260510025736 53 0.0 0.0 0.00 0.00 0.00 77 947.0
20260510025136 54 0.0 0.0 0.00 0.00 0.00 77 947.0
20260510024836 54 0.0 0.0 0.00 0.00 0.00 77 947.0
20260510024236 54 0.0 0.0 0.00 0.00 0.00 77 947.0
20260510023635 54 0.0 0.0 0.00 0.00 0.00 77 947.0
20260510023335 54 0.0 0.0 0.00 0.00 0.00 77 947.0
20260510022736 54 0.0 0.0 0.00 0.00 0.00 77 947.0
20260510022135 54 0.0 0.0 0.00 0.00 0.00 77 947.0
20260510021904 54 0.0 0.0 0.00 0.00 0.00 77 947.0
20260510021544 54 0.0 0.0 0.00 0.00 0.00 78 947.0
20260510021235 54 0.0 0.0 0.00 0.00 0.00 78 947.0
20260510020936 54 0.0 0.0 0.00 0.00 0.00 78 947.0
20260510020636 54 0.0 0.0 0.00 0.00 0.00 78 947.0
20260510020336 54 0.0 0.0 0.00 0.00 0.00 78 947.0
20260510020035 54 0.0 0.0 0.00 0.00 0.00 78 947.0
20260510015735 54 0.0 0.0 0.00 0.00 0.00 78 947.0
20260510014836 54 0.0 0.0 0.00 0.00 0.00 78 947.0
20260510014236 54 0.0 0.0 0.00 0.00 0.00 78 947.0
20260510013935 54 0.0 0.0 0.00 0.00 0.00 77 947.1
20260510013636 54 0.0 0.0 0.00 0.00 0.00 77 947.1
20260510013335 54 0.0 0.0 0.00 0.00 0.00 77 947.1
20260510013036 54 0.0 0.0 0.00 0.00 0.00 77 947.1
20260510012735 54 0.0 0.0 0.00 0.00 0.00 77 947.1
20260510012435 54 0.0 0.0 0.00 0.00 0.00 77 947.1
20260510012136 54 0.0 0.0 0.00 0.00 0.00 77 947.1
20260510011835 54 0.0 0.0 0.00 0.00 0.00 78 947.0
20260510011536 54 0.0 0.0 0.00 0.00 0.00 78 947.0
20260510011236 54 0.0 0.0 0.00 0.00 0.00 78 947.0
20260510010935 54 0.0 0.0 0.00 0.00 0.00 78 947.0
20260510010636 54 0.0 0.0 0.00 0.00 0.00 78 947.0
20260510010335 54 0.0 0.0 0.00 0.00 0.00 78 947.0
20260510010036 54 0.0 0.0 0.00 0.00 0.00 78 947.0
20260510005435 54 0.0 0.0 0.00 0.00 0.00 77 947.4
20260510005136 54 0.0 0.0 0.00 0.00 0.00 77 947.4
20260510004835 54 0.0 0.0 0.00 0.00 0.00 77 947.4
20260510004535 54 0.0 0.0 0.00 0.00 0.00 77 947.4
20260510004236 54 0.0 0.0 0.00 0.00 0.00 77 947.4
20260510003936 54 0.0 0.0 0.00 0.00 0.00 77 947.4
20260510003636 54 0.0 0.0 0.00 0.00 0.00 77 947.4
20260510003335 54 0.0 0.0 0.00 0.00 0.00 77 947.4
20260510003035 54 0.0 0.0 0.00 0.00 0.00 77 947.4
20260510002736 54 0.0 0.0 0.00 0.00 0.00 77 947.0
20260510002435 54 0.0 0.0 0.00 0.00 0.00 77 947.0
20260510002135 54 0.0 0.0 0.00 0.00 0.00 77 947.0
20260510001536 54 0.0 0.0 0.00 0.00 0.00 77 947.0
20260510000936 55 0.0 0.0 0.00 0.00 0.00 75 947.3
20260510000635 55 0.0 0.0 0.00 0.00 0.00 75 947.3
20260510000336 55 0.0 0.0 0.00 0.00 0.00 75 947.3
20260510000036 55 0.0 0.0 0.00 0.00 0.00 75 947.3
20260509235736 55 0.0 0.0 0.00 0.00 0.00 75 947.3
20260509235435 55 0.0 0.0 0.00 0.00 0.00 75 947.3
20260509235135 55 0.0 0.0 0.00 0.00 0.00 75 947.3
20260509234835 55 0.0 0.0 0.00 0.00 0.00 75 947.3
20260509234535 55 0.0 0.0 0.00 0.00 0.00 75 947.3
20260509234236 55 0.0 0.0 0.00 0.00 0.00 75 947.3
20260509233936 55 0.0 0.0 0.00 0.00 0.00 75 947.3
20260509233636 55 0.0 0.0 0.00 0.00 0.00 75 947.3
20260509233335 55 0.0 0.0 0.00 0.00 0.00 75 947.3
20260509233036 55 0.0 0.0 0.00 0.00 0.00 75 947.0
20260509232736 55 0.0 0.0 0.00 0.00 0.00 75 947.0
20260509232435 55 0.0 0.0 0.00 0.00 0.00 75 947.0
20260509232136 56 0.0 0.0 0.00 0.00 0.00 71 947.0
20260509231535 56 0.0 0.0 0.00 0.00 0.00 71 947.0
20260509231235 56 0.0 0.0 0.00 0.00 0.00 71 947.0
20260509230936 56 0.0 0.0 0.00 0.00 0.00 71 947.0
20260509230636 56 0.0 0.0 0.00 0.00 0.00 71 947.0
20260509230336 56 0.0 0.0 0.00 0.00 0.00 71 947.0
20260509230035 56 0.0 0.0 0.00 0.00 0.00 69 947.1
20260509225436 56 0.0 0.0 0.00 0.00 0.00 69 947.1
20260509224836 56 0.0 0.0 0.00 0.00 0.00 69 947.1
20260509224536 56 0.0 0.0 0.00 0.00 0.00 69 947.1
20260509224236 56 0.0 0.0 0.00 0.00 0.00 69 947.1
20260509223636 56 0.0 0.0 0.00 0.00 0.00 70 946.0
20260509223336 56 0.0 0.0 0.00 0.00 0.00 70 946.0
20260509222736 56 0.0 0.0 0.00 0.00 0.00 70 946.0
20260509222436 56 0.0 0.0 0.00 0.00 0.00 70 946.0
20260509222135 56 0.0 0.0 0.00 0.00 0.00 70 946.0
20260509221536 56 0.0 0.0 0.00 0.00 0.00 70 946.0
20260509221236 56 0.0 0.0 0.00 0.00 0.00 70 946.0
20260509220936 56 0.0 0.0 0.00 0.00 0.00 70 946.0
20260509220636 56 0.0 0.0 0.00 0.00 0.00 70 946.0
20260509220036 57 0.0 0.0 0.00 0.00 0.00 70 946.0
20260509215436 57 0.0 0.0 0.00 0.00 0.00 70 946.0
20260509215135 57 0.0 0.0 0.00 0.00 0.00 70 946.0
20260509214836 57 0.0 0.0 0.00 0.00 0.00 70 946.0
20260509214536 57 0.0 0.0 0.00 0.00 0.00 70 946.0
20260509213936 57 0.0 0.0 0.00 0.00 0.00 70 946.0
20260509213336 57 0.0 0.0 0.00 0.00 0.00 70 946.0
20260509212736 58 0.0 0.0 0.00 0.00 0.00 68 946.0
20260509212436 58 0.0 0.0 0.00 0.00 0.00 68 946.0
20260509212136 58 0.0 0.0 0.00 0.00 0.00 68 946.0
20260509211535 58 0.0 0.0 0.00 0.00 0.00 67 946.0
20260509211236 58 0.0 0.0 0.00 0.00 0.00 67 946.0
20260509210635 59 0.0 0.0 0.00 0.00 0.00 67 946.0
20260509210336 59 0.0 0.0 0.00 0.00 0.00 67 945.9
20260509205736 59 0.0 0.0 0.00 0.00 0.00 67 945.9
20260509205435 59 0.0 0.0 0.00 0.00 0.00 67 945.9
20260509205136 59 0.0 0.0 0.00 0.00 0.00 67 945.9
20260509204535 60 0.0 0.0 0.00 0.00 0.00 66 945.0
20260509204236 60 0.0 0.0 0.00 0.00 0.00 66 945.0
20260509203935 60 0.0 0.0 0.00 0.00 0.00 66 945.0
20260509203635 60 0.0 0.0 0.00 0.00 0.00 65 945.4
20260509203036 60 0.0 0.0 0.00 0.00 0.00 63 945.0
20260509202735 60 0.0 0.0 0.00 0.00 0.00 63 945.0
20260509202435 60 0.0 0.0 0.00 0.00 0.00 63 945.0
20260509202136 61 0.0 0.0 0.00 0.00 0.00 59 945.0
20260509201835 61 0.0 0.0 0.00 0.00 0.00 59 945.0
20260509200936 61 0.0 0.0 0.00 0.00 0.00 59 945.0
20260509200635 61 0.0 0.0 0.00 0.00 0.00 58 944.0
20260509200336 61 0.0 0.0 0.00 0.00 0.00 58 944.0
20260509200036 61 0.0 0.0 0.00 0.00 0.00 58 944.0
20260509195136 60 0.0 0.0 0.00 0.00 0.00 59 944.4
20260509194836 60 0.0 0.0 0.00 0.00 0.00 59 944.4
20260509194536 60 0.0 0.0 0.00 0.00 0.00 59 944.4
20260509193936 60 0.0 0.0 0.00 0.00 0.00 59 944.4
20260509193635 60 0.0 0.0 0.00 0.00 0.00 59 944.4
20260509193036 61 0.0 0.0 0.00 0.00 0.00 57 944.0
20260509192735 61 0.0 0.0 0.00 0.00 0.00 57 944.0
20260509192136 61 0.0 0.0 0.00 0.00 0.00 57 944.0
20260509191836 62 0.0 0.0 0.00 0.00 0.00 56 943.0
20260509191536 62 0.0 0.0 0.00 0.00 0.00 56 943.0
20260509190336 62 0.0 0.0 0.00 0.00 0.00 54 943.0
20260509190036 62 0.0 0.0 0.00 0.00 0.00 54 943.0
20260509185436 62 0.0 0.0 0.00 0.00 0.00 54 943.0
20260509184835 62 0.0 0.0 0.00 0.00 0.00 54 943.0
20260509184536 62 0.0 0.0 0.00 0.00 0.00 54 943.0
20260509183636 62 0.0 0.0 0.00 0.00 0.00 54 943.0
20260509183335 63 0.0 0.0 0.00 0.00 0.00 53 943.4
20260509182736 63 0.0 0.0 0.00 0.00 0.00 52 943.0
20260509182136 63 0.0 0.0 0.00 0.00 0.00 52 943.0
20260509181836 63 0.0 0.0 0.00 0.00 0.00 52 943.0
20260509181536 64 0.0 0.0 0.00 0.00 0.00 53 943.0
20260509181236 64 0.0 0.0 0.00 0.00 0.00 53 943.0
20260509180936 64 0.0 0.0 0.00 0.00 0.00 53 943.0
20260509180636 64 0.0 0.0 0.00 0.00 0.00 53 943.0
20260509180336 64 0.0 0.0 0.00 0.00 0.00 53 943.0
20260509180036 64 0.0 0.0 0.00 0.00 0.00 53 943.0
20260509175736 64 0.0 0.0 0.00 0.00 0.00 53 943.0
20260509175436 64 0.0 0.0 0.00 0.00 0.00 53 943.0
20260509174835 65 0.0 0.0 0.00 0.00 0.00 52 942.0
20260509174536 65 0.0 0.0 0.00 0.00 0.00 52 942.0
20260509174236 65 0.0 0.0 0.00 0.00 0.00 51 942.0
20260509173935 65 0.0 0.0 0.00 0.00 0.00 51 942.0
20260509173636 65 0.0 0.0 0.00 0.00 0.00 51 942.0
20260509172736 65 0.0 0.0 0.00 0.00 0.00 51 942.0
20260509172436 65 0.0 0.0 0.00 0.00 0.00 51 942.0
20260509172135 65 0.0 0.0 0.00 0.00 0.00 51 942.0
20260509171835 65 0.0 0.0 0.00 0.00 0.00 51 942.0
20260509171536 65 0.0 0.0 0.00 0.00 0.00 51 942.0
20260509171236 65 0.0 0.0 0.00 0.00 0.00 51 942.0
20260509170936 65 0.0 0.0 0.00 0.00 0.00 51 942.0
20260509170636 64 0.0 0.0 0.00 0.00 0.00 51 943.0
20260509170336 64 0.0 0.0 0.00 0.00 0.00 51 943.0
20260509170036 64 0.0 0.0 0.00 0.00 0.00 51 943.0
20260509165736 64 0.0 0.0 0.00 0.00 0.00 51 943.0
20260509165435 64 0.0 0.0 0.00 0.00 0.00 51 943.0
20260509165135 65 0.0 0.0 0.00 0.00 0.00 52 942.0
20260509164836 65 0.0 0.0 0.00 0.00 0.00 52 942.0
20260509164536 65 0.0 0.0 0.00 0.00 0.00 52 942.0
20260509164236 65 0.0 0.0 0.00 0.00 0.00 52 942.0
20260509163936 65 0.0 0.0 0.00 0.00 0.00 52 942.0
20260509163635 65 0.0 0.0 0.00 0.00 0.00 52 942.0
20260509163336 65 0.0 0.0 0.00 0.00 0.00 52 942.0
20260509163035 65 0.0 0.0 0.00 0.00 0.00 52 942.0
20260509162736 65 0.0 0.0 0.00 0.00 0.00 52 942.0
20260509162136 65 0.0 0.0 0.00 0.00 0.00 52 942.0
20260509161836 65 0.0 0.0 0.00 0.00 0.00 52 942.0
20260509161536 65 0.0 0.0 0.00 0.00 0.00 52 942.0
20260509161235 65 0.0 0.0 0.00 0.00 0.00 52 942.0
20260509160936 65 0.0 0.0 0.00 0.00 0.00 52 942.8
20260509160635 65 0.0 0.0 0.00 0.00 0.00 52 942.8
20260509160336 65 0.0 0.0 0.00 0.00 0.00 52 942.8
20260509155736 66 0.0 0.0 0.00 0.00 0.00 52 942.0
20260509155436 66 0.0 0.0 0.00 0.00 0.00 52 942.0
20260509155136 66 0.0 0.0 0.00 0.00 0.00 52 942.0
20260509154536 67 0.0 0.0 0.00 0.00 0.00 50 943.0
20260509154236 67 0.0 0.0 0.00 0.00 0.00 50 943.0
20260509153635 67 0.0 0.0 0.00 0.00 0.00 47 942.0
20260509153036 67 0.0 0.0 0.00 0.00 0.00 47 942.0
20260509152735 68 0.0 0.0 0.00 0.00 0.00 47 942.8
20260509152435 68 0.0 0.0 0.00 0.00 0.00 47 942.8
20260509152135 68 0.0 0.0 0.00 0.00 0.00 47 942.8
20260509151836 68 0.0 0.0 0.00 0.00 0.00 47 942.8
20260509151536 68 0.0 0.0 0.00 0.00 0.00 47 942.8
20260509151235 68 0.0 0.0 0.00 0.00 0.00 47 942.8
20260509150936 68 0.0 0.0 0.00 0.00 0.00 47 942.8
20260509150635 68 0.0 0.0 0.00 0.00 0.00 47 942.8
20260509150335 68 0.0 0.0 0.00 0.00 0.00 47 942.8
20260509150036 68 0.0 0.0 0.00 0.00 0.00 46 942.0
20260509145735 68 0.0 0.0 0.00 0.00 0.00 46 942.0
20260509145136 68 0.0 0.0 0.00 0.00 0.00 46 942.0
20260509144535 69 0.0 0.0 0.00 0.00 0.00 46 942.0
20260509144236 69 0.0 0.0 0.00 0.00 0.00 46 942.0
20260509143936 69 0.0 0.0 0.00 0.00 0.00 46 942.0
20260509143635 69 0.0 0.0 0.00 0.00 0.00 46 942.0
20260509143336 69 0.0 0.0 0.00 0.00 0.00 46 942.0
20260509143036 69 0.0 0.0 0.00 0.00 0.00 47 943.0
20260509142136 68 0.0 0.0 0.00 0.00 0.00 48 943.1
20260509141836 68 0.0 0.0 0.00 0.00 0.00 48 943.1
20260509141236 68 0.0 0.0 0.00 0.00 0.00 48 943.1
20260509140935 68 0.0 0.0 0.00 0.00 0.00 48 943.1
20260509140635 67 0.0 0.0 0.00 0.00 0.00 48 943.0
20260509140335 67 0.0 0.0 0.00 0.00 0.00 48 943.0
20260509140036 67 0.0 0.0 0.00 0.00 0.00 48 943.0
20260509135736 67 0.0 0.0 0.00 0.00 0.00 48 943.0
20260509135136 66 0.0 0.0 0.00 0.00 0.00 49 943.0
20260509134836 66 0.0 0.0 0.00 0.00 0.00 50 943.0
20260509134536 66 0.0 0.0 0.00 0.00 0.00 50 943.0
20260509134235 66 0.0 0.0 0.00 0.00 0.00 50 943.0
20260509133935 67 0.0 0.0 0.00 0.00 0.00 50 943.0
20260509133635 67 0.0 0.0 0.00 0.00 0.00 50 943.0
20260509133336 67 0.0 0.0 0.00 0.00 0.00 50 943.0
20260509133036 67 0.0 0.0 0.00 0.00 0.00 50 943.0
20260509132736 68 0.0 0.0 0.00 0.00 0.00 52 943.0
20260509131836 69 0.0 0.0 0.00 0.00 0.00 52 943.0
20260509131236 69 0.0 0.0 0.00 0.00 0.00 54 943.7
20260509130936 69 0.0 0.0 0.00 0.00 0.00 54 943.7
20260509130636 68 0.0 0.0 0.00 0.00 0.00 55 943.0
20260509130336 68 0.0 0.0 0.00 0.00 0.00 55 943.0
20260509130036 68 0.0 0.0 0.00 0.00 0.00 54 944.0
20260509125735 67 0.0 0.0 0.00 0.00 0.00 55 943.0
20260509125436 67 0.0 0.0 0.00 0.00 0.00 55 943.0
20260509125136 68 0.0 0.0 0.00 0.00 0.00 51 943.0
20260509124536 68 0.0 0.0 0.00 0.00 0.00 50 943.8
20260509124236 68 0.0 0.0 0.00 0.00 0.00 46 943.0
20260509123935 68 0.0 0.0 0.00 0.00 0.00 46 943.0
20260509123336 69 0.0 0.0 0.00 0.00 0.00 44 943.0
20260509123036 69 0.0 0.0 0.00 0.00 0.00 44 943.0
20260509122735 70 0.0 0.0 0.00 0.00 0.00 42 943.0
20260509122435 71 0.0 0.0 0.00 0.00 0.00 41 943.0
20260509121835 72 0.0 0.0 0.00 0.00 0.00 40 943.0
20260509121535 72 0.0 0.0 0.00 0.00 0.00 40 943.0
20260509121235 72 0.0 0.0 0.00 0.00 0.00 40 943.0
20260509120936 72 0.0 0.0 0.00 0.00 0.00 41 943.0
20260509120635 72 0.0 0.0 0.00 0.00 0.00 41 943.0
20260509120036 72 0.0 0.0 0.00 0.00 0.00 41 943.0
20260509115435 72 0.0 0.0 0.00 0.00 0.00 41 943.0
20260509115136 72 0.0 0.0 0.00 0.00 0.00 41 943.1
20260509114835 71 0.0 0.0 0.00 0.00 0.00 43 943.0
20260509114536 71 0.0 0.0 0.00 0.00 0.00 43 943.0
20260509114235 71 0.0 0.0 0.00 0.00 0.00 43 943.0
20260509113936 71 0.0 0.0 0.00 0.00 0.00 43 943.0
20260509113635 71 0.0 0.0 0.00 0.00 0.00 43 943.0
20260509113336 71 0.0 0.0 0.00 0.00 0.00 43 943.0
20260509113036 71 0.0 0.0 0.00 0.00 0.00 43 943.0
20260509112736 71 0.0 0.0 0.00 0.00 0.00 43 943.0
20260509112435 71 0.0 0.0 0.00 0.00 0.00 43 943.0
20260509112137 72 0.0 0.0 0.00 0.00 0.00 42 943.0
20260509111836 72 0.0 0.0 0.00 0.00 0.00 42 943.0
20260509111536 72 0.0 0.0 0.00 0.00 0.00 42 943.0